Location: Flotzheim
(48.8375°N, 10.8136°E)
Time: 15:56:08
(UTC+00:00)

CSL-04 Rocket - Pass Details

Date: 23 January 2021
Orbit: 806 x 860 km, 98.9° (Epoch: 01 March)

Event Time Altitude Azimuth Distance (km) Brightness Sun altitude
Rises 17:40:49 0° 146° (SSE) 3,362 6.6 -16.3°
Reaches altitude 10° 17:43:12 10° 142° (SE) 2,440 5.8 -16.7°
Maximum altitude 17:48:25 51° 68° (ENE) 1,052 3.8 -17.6°
Drops below altitude 10° 17:53:44 10° 353° (N) 2,489 6.1 -18.4°
Sets 17:56:11 0° 349° (N) 3,435 6.9 -18.8°
